Time,TemperatureF,DewpointF,PressureIn,WindDirection,WindDirectionDegrees,WindSpeedMPH,WindSpeedGustMPH,Humidity,HourlyPrecipIn,Conditions,Clouds,dailyrainin,SoftwareType,DateUTC
2013-03-10 00:01:00,41.0,39.0,29.66,North,0,0.0,0.0,93,0.00,,,1.11,,2013-03-10 06:01:00,
2013-03-10 00:11:00,41.0,39.0,29.67,North,0,0.0,0.0,93,0.03,,,1.14,,2013-03-10 06:11:00,
2013-03-10 00:22:00,41.0,39.0,29.67,North,0,0.0,0.0,93,0.03,,,1.14,,2013-03-10 06:22:00,
2013-03-10 00:32:00,41.0,39.0,29.67,North,0,0.0,0.0,93,0.04,,,1.15,,2013-03-10 06:32:00,
2013-03-10 00:42:00,42.0,40.0,29.66,North,0,0.0,2.0,93,0.08,,,1.19,,2013-03-10 06:42:00,
2013-03-10 00:52:00,42.0,40.0,29.66,North,0,0.0,2.0,93,0.08,,,1.19,,2013-03-10 06:52:00,
2013-03-10 01:01:00,42.0,40.0,29.65,ESE,120,2.0,4.0,93,0.09,,,1.20,,2013-03-10 07:01:00,
2013-03-10 01:11:00,42.0,40.0,29.65,North,0,0.0,3.0,93,0.09,,,1.20,,2013-03-10 07:11:00,
2013-03-10 01:21:00,42.0,40.0,29.65,North,0,0.0,3.0,93,0.09,,,1.20,,2013-03-10 07:21:00,
2013-03-10 01:31:00,41.0,39.0,29.67,North,0,0.0,3.0,93,0.13,,,1.31,,2013-03-10 07:31:00,
2013-03-10 01:42:00,41.0,39.0,29.67,North,0,0.0,0.0,93,0.15,,,1.34,,2013-03-10 07:42:00,
2013-03-10 01:52:00,41.0,39.0,29.67,North,0,0.0,0.0,93,0.15,,,1.34,,2013-03-10 07:52:00,
2013-03-10 03:01:00,42.0,40.0,29.65,North,0,0.0,3.0,93,0.25,,,1.45,,2013-03-10 08:01:00,
2013-03-10 03:11:00,41.0,39.0,29.64,North,0,0.0,0.0,93,0.31,,,1.53,,2013-03-10 08:11:00,
2013-03-10 03:21:00,41.0,39.0,29.64,North,0,0.0,0.0,93,0.31,,,1.53,,2013-03-10 08:21:00,
2013-03-10 03:31:00,42.0,40.0,29.63,North,0,0.0,4.0,93,0.33,,,1.59,,2013-03-10 08:31:00,
2013-03-10 03:42:00,41.0,39.0,29.61,North,0,0.0,1.0,93,0.24,,,1.60,,2013-03-10 08:42:00,
2013-03-10 03:52:00,41.0,39.0,29.61,North,0,0.0,1.0,93,0.24,,,1.60,,2013-03-10 08:52:00,
2013-03-10 04:01:00,41.0,39.0,29.61,North,0,0.0,1.0,93,0.24,,,1.60,,2013-03-10 09:01:00,
2013-03-10 04:11:00,41.0,39.0,29.60,North,0,0.0,0.0,93,0.08,,,1.60,,2013-03-10 09:11:00,
2013-03-10 04:21:00,41.0,39.0,29.60,North,0,0.0,0.0,93,0.08,,,1.60,,2013-03-10 09:21:00,
2013-03-10 04:31:00,41.0,39.0,29.60,North,0,0.0,0.0,93,0.00,,,1.56,,2013-03-10 09:31:00,
2013-03-10 04:42:00,41.0,39.0,29.61,North,0,0.0,0.0,93,0.00,,,1.54,,2013-03-10 09:42:00,
2013-03-10 04:52:00,41.0,39.0,29.61,North,0,0.0,0.0,93,0.00,,,1.54,,2013-03-10 09:52:00,
2013-03-10 05:01:00,40.0,38.0,29.61,North,0,0.0,0.0,93,0.00,,,1.51,,2013-03-10 10:01:00,
2013-03-10 05:11:00,40.0,38.0,29.61,North,0,0.0,0.0,93,0.00,,,1.51,,2013-03-10 10:11:00,
2013-03-10 05:21:00,40.0,38.0,29.63,WNW,290,1.0,4.0,93,0.00,,,1.47,,2013-03-10 10:21:00,
2013-03-10 05:32:00,40.0,38.0,29.64,WNW,287,1.0,3.0,93,0.00,,,1.43,,2013-03-10 10:32:00,
2013-03-10 05:41:00,39.0,37.0,29.63,North,0,0.0,2.0,93,0.00,,,1.42,,2013-03-10 10:41:00,
2013-03-10 05:52:00,39.0,37.0,29.63,North,0,0.0,2.0,93,0.00,,,1.42,,2013-03-10 10:52:00,
2013-03-10 06:01:00,39.0,37.0,29.64,North,0,0.0,2.0,93,0.00,,,1.42,,2013-03-10 11:01:00,
2013-03-10 06:11:00,39.0,37.0,29.63,North,0,0.0,0.0,93,0.00,,,1.42,,2013-03-10 11:11:00,
2013-03-10 06:21:00,39.0,37.0,29.63,North,0,0.0,0.0,93,0.00,,,1.42,,2013-03-10 11:21:00,
2013-03-10 06:31:00,38.0,36.0,29.62,NNW,337,1.0,5.0,93,0.00,,,1.42,,2013-03-10 11:31:00,
2013-03-10 06:42:00,38.0,36.0,29.62,NNW,337,1.0,5.0,93,0.00,,,1.42,,2013-03-10 11:42:00,
2013-03-10 06:52:00,38.0,36.0,29.68,North,0,0.0,2.0,93,0.01,,,1.43,,2013-03-10 11:52:00,
2013-03-10 07:01:00,37.0,35.0,29.67,NNW,334,1.0,6.0,93,0.09,,,1.51,,2013-03-10 12:01:00,
2013-03-10 07:11:00,37.0,35.0,29.67,NNW,334,1.0,6.0,93,0.09,,,1.51,,2013-03-10 12:11:00,
2013-03-10 07:21:00,37.0,35.0,29.67,NNW,347,2.0,6.0,93,0.10,,,1.52,,2013-03-10 12:21:00,
2013-03-10 07:31:00,37.0,35.0,29.67,NNW,340,1.0,4.0,93,0.10,,,1.52,,2013-03-10 12:31:00,
2013-03-10 07:42:00,37.0,35.0,29.67,NNW,340,1.0,4.0,93,0.10,,,1.52,,2013-03-10 12:42:00,
2013-03-10 07:52:00,37.0,35.0,29.67,NNW,340,1.0,4.0,93,0.10,,,1.52,,2013-03-10 12:52:00,
2013-03-10 08:01:00,36.0,34.0,29.67,North,357,3.0,6.0,93,0.01,,,1.52,,2013-03-10 13:01:00,
2013-03-10 08:11:00,36.0,34.0,29.67,North,357,3.0,6.0,93,0.01,,,1.52,,2013-03-10 13:11:00,
2013-03-10 08:21:00,36.0,34.0,29.67,North,1,2.0,7.0,93,0.01,,,1.52,,2013-03-10 13:21:00,
2013-03-10 08:31:00,36.0,34.0,29.67,North,356,4.0,7.0,93,0.00,,,1.52,,2013-03-10 13:31:00,
2013-03-10 08:41:00,36.0,34.0,29.67,North,356,4.0,7.0,93,0.00,,,1.52,,2013-03-10 13:41:00,
2013-03-10 08:52:00,36.0,34.0,29.66,NE,39,3.0,10.0,93,0.00,,,1.52,,2013-03-10 13:52:00,
2013-03-10 09:01:00,36.0,34.0,29.68,North,360,3.0,8.0,93,0.00,,,1.52,,2013-03-10 14:01:00,
2013-03-10 09:11:00,36.0,34.0,29.68,North,360,3.0,8.0,93,0.00,,,1.52,,2013-03-10 14:11:00,
2013-03-10 09:21:00,36.0,34.0,29.70,NNE,13,2.0,8.0,93,0.00,,,1.52,,2013-03-10 14:21:00,
2013-03-10 09:32:00,36.0,34.0,29.72,North,359,3.0,10.0,93,0.00,,,1.52,,2013-03-10 14:32:00,
2013-03-10 09:41:00,36.0,34.0,29.72,North,359,3.0,10.0,93,0.00,,,1.52,,2013-03-10 14:41:00,
2013-03-10 09:52:00,36.0,34.0,29.72,North,357,3.0,7.0,93,0.00,,,1.52,,2013-03-10 14:52:00,
2013-03-10 10:01:00,36.0,34.0,29.71,North,358,3.0,10.0,93,0.06,,,1.58,,2013-03-10 15:01:00,
2013-03-10 10:11:00,36.0,34.0,29.71,North,358,3.0,10.0,93,0.06,,,1.58,,2013-03-10 15:11:00,
2013-03-10 10:21:00,36.0,34.0,29.70,ESE,108,1.0,8.0,93,0.08,,,1.60,,2013-03-10 15:21:00,
2013-03-10 10:32:00,36.0,34.0,29.69,North,3,2.0,7.0,93,0.09,,,1.61,,2013-03-10 15:32:00,
2013-03-10 10:42:00,36.0,34.0,29.69,North,3,2.0,7.0,93,0.09,,,1.61,,2013-03-10 15:42:00,
2013-03-10 10:52:00,36.0,34.0,29.68,SW,215,2.0,8.0,93,0.09,,,1.61,,2013-03-10 15:52:00,
2013-03-10 11:01:00,36.0,34.0,29.70,North,352,4.0,11.0,93,0.03,,,1.61,,2013-03-10 16:01:00,
2013-03-10 11:12:00,36.0,34.0,29.70,North,352,4.0,11.0,93,0.03,,,1.61,,2013-03-10 16:12:00,
2013-03-10 11:21:00,36.0,34.0,29.72,NNE,14,3.0,8.0,93,0.02,,,1.61,,2013-03-10 16:21:00,
2013-03-10 11:31:00,36.0,34.0,29.72,North,355,3.0,9.0,93,0.00,,,1.61,,2013-03-10 16:31:00,
2013-03-10 11:41:00,36.0,34.0,29.72,North,355,3.0,9.0,93,0.00,,,1.61,,2013-03-10 16:41:00,
2013-03-10 11:51:00,36.0,34.0,29.72,SSE,156,2.0,7.0,93,0.00,,,1.61,,2013-03-10 16:51:00,
2013-03-10 12:01:00,36.0,34.0,29.70,NNE,15,2.0,8.0,93,0.01,,,1.61,,2013-03-10 17:01:00,
2013-03-10 12:11:00,36.0,34.0,29.70,NNE,15,2.0,8.0,93,0.01,,,1.61,,2013-03-10 17:11:00,
2013-03-10 12:21:00,36.0,34.0,29.68,NNE,12,3.0,10.0,93,0.01,,,1.59,,2013-03-10 17:21:00,
2013-03-10 12:31:00,36.0,34.0,29.69,North,355,3.0,7.0,93,0.01,,,1.52,,2013-03-10 17:31:00,
2013-03-10 12:41:00,36.0,34.0,29.69,North,355,3.0,7.0,93,0.01,,,1.52,,2013-03-10 17:41:00,
2013-03-10 12:51:00,36.0,34.0,29.68,ESE,110,3.0,9.0,93,0.01,,,1.47,,2013-03-10 17:51:00,
2013-03-10 13:01:00,36.0,34.0,29.69,NNE,12,2.0,9.0,93,0.00,,,1.42,,2013-03-10 18:01:00,
2013-03-10 13:11:00,36.0,34.0,29.67,North,359,4.0,11.0,93,0.00,,,1.39,,2013-03-10 18:11:00,
2013-03-10 13:21:00,36.0,34.0,29.67,North,359,4.0,11.0,93,0.00,,,1.39,,2013-03-10 18:21:00,
2013-03-10 13:32:00,37.0,35.0,29.67,ENE,63,2.0,8.0,93,0.01,,,1.37,,2013-03-10 18:32:00,
2013-03-10 13:42:00,37.0,35.0,29.67,ENE,63,2.0,8.0,93,0.01,,,1.37,,2013-03-10 18:42:00,
2013-03-10 13:52:00,37.0,35.0,29.67,NNE,33,2.0,5.0,93,0.04,,,1.38,,2013-03-10 18:52:00,
2013-03-10 14:01:00,37.0,35.0,29.66,NNE,26,2.0,8.0,93,0.05,,,1.36,,2013-03-10 19:01:00,
2013-03-10 14:11:00,37.0,35.0,29.66,NNE,26,2.0,8.0,93,0.05,,,1.36,,2013-03-10 19:11:00,
2013-03-10 14:21:00,37.0,35.0,29.63,ESE,106,2.0,6.0,93,0.06,,,1.35,,2013-03-10 19:21:00,
2013-03-10 14:31:00,37.0,35.0,29.64,ENE,60,1.0,9.0,93,0.05,,,1.35,,2013-03-10 19:31:00,
2013-03-10 14:42:00,37.0,35.0,29.64,ENE,60,1.0,9.0,93,0.05,,,1.35,,2013-03-10 19:42:00,
2013-03-10 14:53:00,37.0,35.0,29.63,North,10,3.0,10.0,93,0.02,,,1.34,,2013-03-10 19:53:00,
2013-03-10 15:02:00,37.0,35.0,29.64,NE,43,3.0,9.0,93,0.02,,,1.35,,2013-03-10 20:02:00,
2013-03-10 15:12:00,37.0,35.0,29.64,NE,43,3.0,9.0,93,0.02,,,1.35,,2013-03-10 20:12:00,
2013-03-10 15:22:00,37.0,35.0,29.63,North,0,0.0,4.0,93,0.06,,,1.35,,2013-03-10 20:22:00,
2013-03-10 15:32:00,37.0,35.0,29.63,North,0,0.0,4.0,93,0.09,,,1.33,,2013-03-10 20:32:00,
2013-03-10 15:42:00,37.0,35.0,29.63,North,0,0.0,4.0,93,0.09,,,1.33,,2013-03-10 20:42:00,
2013-03-10 15:53:00,37.0,35.0,29.64,NW,312,1.0,3.0,93,0.10,,,1.33,,2013-03-10 20:53:00,
2013-03-10 16:02:00,37.0,35.0,29.62,North,1,1.0,3.0,93,0.12,,,1.30,,2013-03-10 21:02:00,
2013-03-10 16:12:00,37.0,35.0,29.62,North,1,1.0,3.0,93,0.12,,,1.30,,2013-03-10 21:12:00,
2013-03-10 16:22:00,37.0,35.0,29.62,SSW,204,1.0,4.0,93,0.09,,,1.31,,2013-03-10 21:22:00,
2013-03-10 16:32:00,37.0,35.0,29.62,NNE,22,1.0,5.0,93,0.09,,,1.32,,2013-03-10 21:32:00,
2013-03-10 16:42:00,37.0,35.0,29.62,NNE,22,1.0,5.0,93,0.09,,,1.32,,2013-03-10 21:42:00,
2013-03-10 16:53:00,37.0,35.0,29.62,NNE,22,1.0,5.0,93,0.09,,,1.32,,2013-03-10 21:53:00,
2013-03-10 17:02:00,37.0,35.0,29.64,North,352,2.0,6.0,93,0.09,,,1.30,,2013-03-10 22:02:00,
2013-03-10 17:12:00,37.0,35.0,29.64,North,352,2.0,6.0,93,0.09,,,1.30,,2013-03-10 22:12:00,
2013-03-10 17:22:00,37.0,35.0,29.64,North,0,0.0,3.0,93,0.09,,,1.28,,2013-03-10 22:22:00,
2013-03-10 17:32:00,37.0,35.0,29.64,North,353,2.0,4.0,93,0.08,,,1.24,,2013-03-10 22:32:00,
2013-03-10 17:42:00,37.0,35.0,29.64,North,353,2.0,4.0,93,0.08,,,1.24,,2013-03-10 22:42:00,
2013-03-10 17:53:00,37.0,35.0,29.63,NNW,345,4.0,6.0,93,0.07,,,1.22,,2013-03-10 22:53:00,
2013-03-10 18:02:00,37.0,35.0,29.63,NNW,334,2.0,6.0,93,0.05,,,1.20,,2013-03-10 23:02:00,
2013-03-10 18:12:00,36.0,34.0,29.63,NNW,347,2.0,7.0,93,0.04,,,1.20,,2013-03-10 23:12:00,
2013-03-10 18:22:00,36.0,34.0,29.63,NNW,347,2.0,7.0,93,0.04,,,1.20,,2013-03-10 23:22:00,
2013-03-10 18:32:00,36.0,34.0,29.63,NNW,346,2.0,6.0,93,0.04,,,1.21,,2013-03-10 23:32:00,
2013-03-10 18:42:00,36.0,34.0,29.63,NNW,346,2.0,6.0,93,0.04,,,1.21,,2013-03-10 23:42:00,
2013-03-10 18:52:00,36.0,34.0,29.64,NW,310,2.0,6.0,93,0.04,,,1.20,,2013-03-10 23:52:00,
2013-03-10 19:02:00,36.0,34.0,29.64,NNW,347,1.0,6.0,93,0.04,,,1.19,,2013-03-11 00:02:00,
2013-03-10 19:12:00,36.0,34.0,29.64,NNW,347,1.0,6.0,93,0.04,,,1.19,,2013-03-11 00:12:00,
2013-03-10 19:22:00,35.0,33.0,29.65,NNW,334,2.0,5.0,93,0.03,,,1.19,,2013-03-11 00:22:00,
2013-03-10 19:33:00,35.0,33.0,29.65,NNW,338,3.0,6.0,93,0.02,,,1.17,,2013-03-11 00:33:00,
2013-03-10 19:42:00,35.0,33.0,29.65,NNW,338,3.0,6.0,93,0.02,,,1.17,,2013-03-11 00:42:00,
2013-03-10 19:52:00,35.0,33.0,29.65,NNW,336,2.0,7.0,93,0.01,,,1.17,,2013-03-11 00:52:00,
2013-03-10 20:02:00,34.0,32.0,29.65,North,353,1.0,6.0,93,0.00,,,1.17,,2013-03-11 01:02:00,
2013-03-10 20:12:00,34.0,32.0,29.65,North,353,1.0,6.0,93,0.00,,,1.17,,2013-03-11 01:12:00,
2013-03-10 20:22:00,34.0,32.0,29.65,North,353,1.0,6.0,93,0.00,,,1.17,,2013-03-11 01:22:00,
2013-03-10 20:32:00,34.0,32.0,29.65,North,349,3.0,7.0,93,0.00,,,1.15,,2013-03-11 01:32:00,
2013-03-10 20:42:00,34.0,32.0,29.65,North,349,3.0,7.0,93,0.00,,,1.15,,2013-03-11 01:42:00,
2013-03-10 20:53:00,34.0,32.0,29.66,North,3,2.0,5.0,93,0.00,,,1.12,,2013-03-11 01:53:00,
2013-03-10 21:02:00,34.0,32.0,29.67,NW,306,2.0,6.0,93,0.00,,,1.11,,2013-03-11 02:02:00,
2013-03-10 21:12:00,34.0,32.0,29.67,NW,306,2.0,6.0,93,0.00,,,1.11,,2013-03-11 02:12:00,
2013-03-10 21:22:00,34.0,32.0,29.67,NW,324,2.0,4.0,93,0.00,,,1.10,,2013-03-11 02:22:00,
2013-03-10 21:32:00,34.0,32.0,29.67,NNW,346,4.0,7.0,93,0.01,,,1.10,,2013-03-11 02:32:00,
2013-03-10 21:42:00,34.0,32.0,29.67,NNW,346,4.0,7.0,93,0.01,,,1.10,,2013-03-11 02:42:00,
2013-03-10 21:52:00,34.0,32.0,29.67,NNW,348,3.0,7.0,93,0.01,,,1.09,,2013-03-11 02:52:00,
2013-03-10 22:02:00,34.0,32.0,29.67,NNW,342,2.0,6.0,93,0.01,,,1.09,,2013-03-11 03:02:00,
2013-03-10 22:12:00,34.0,32.0,29.67,NNW,342,2.0,6.0,93,0.01,,,1.09,,2013-03-11 03:12:00,
2013-03-10 22:22:00,34.0,32.0,29.67,NNW,338,1.0,4.0,93,0.01,,,1.09,,2013-03-11 03:22:00,
2013-03-10 22:32:00,34.0,32.0,29.68,NNW,340,3.0,6.0,93,0.00,,,1.09,,2013-03-11 03:32:00,
2013-03-10 22:42:00,34.0,32.0,29.68,NNW,340,3.0,6.0,93,0.00,,,1.09,,2013-03-11 03:42:00,
2013-03-10 22:53:00,34.0,32.0,29.67,NNW,341,3.0,8.0,93,0.00,,,1.08,,2013-03-11 03:53:00,
2013-03-10 23:02:00,34.0,32.0,29.68,NNW,334,3.0,8.0,93,0.00,,,1.08,,2013-03-11 04:02:00,
2013-03-10 23:12:00,34.0,32.0,29.68,NNW,334,3.0,8.0,93,0.00,,,1.08,,2013-03-11 04:12:00,
2013-03-10 23:22:00,34.0,32.0,29.68,NNW,343,3.0,9.0,93,0.01,,,1.09,,2013-03-11 04:22:00,
2013-03-10 23:32:00,34.0,32.0,29.68,NNW,336,4.0,8.0,93,0.01,,,1.09,,2013-03-11 04:32:00,
2013-03-10 23:42:00,34.0,32.0,29.68,NNW,336,4.0,8.0,93,0.01,,,1.09,,2013-03-11 04:42:00,
2013-03-10 23:53:00,33.0,31.0,29.69,NNW,346,3.0,6.0,93,0.01,,,1.09,,2013-03-11 04:53:00,